User: anonymous   Login
Location: Bastogne Gables
(35.1554°N, 78.9900°W)
Time: 03:32:54
(UTC+00:00)
Language:

Cosmos 1689 Rocket - Orbit

View from above orbital plane
View from above orbital plane
View from above satellite
View from above satellite

Ground track
Ground track

The orbit data is extracted from the following two-line orbital elements,

1 16111U 85090B   21018.44302177  .00010527  00000-0  94226-4 0  9994
2 16111  97.4817 210.9935 0009865 180.8578 179.2668 15.68493742948674
Epoch (UTC): 18 January 2021 10:37:57
Eccentricity: 0.0009865
inclination: 97.4817°
perigee height: 356 km
apogee height: 370 km
right ascension of ascending node: 210.9935°
argument of perigee: 180.8578°
revolutions per day: 15.68493742
mean anomaly at epoch: 179.2668°
orbit number at epoch: 94867

The dashed part of the orbit path shows where the satellite is in the earth's shadow,  

DLR